Vertical_Velocity
-0 -0 -0 -0 -1 -1 -1 -1 -1 -1 -1 -1 -1 -1 -1 -1 -1 -1 -1 -1 -1 -1 -1 -1 -1 -1 -1 -1 -1 -1 -1 -1 -1 -1 -1 -1 -1 -1 -1 -1 -1 -1 -1 -1 -1 -1 -1 -1 -1 -1 -1 -1 -1 -1 -0 -1 -1 -1 -0 -0 -1 -1 -1 -1 -1 -1 -0 -0 -1 -1 -1 -1 -1 -1 -1 -1 -1 -1 -1 -1 -1 -1 -1 -1 -1 -1 -1 -1 -1 -1 -1 -1 -1 -1 -1 -1 -1 -1 -1 -1 -1 -1 -1
-0 -0 -0 -0 -1 -1 -1 -1 -1 -1 -1 -1 -1 -1 -1 -1 -1 -1 -1 -1 -1 -1 -0 -0 -1 -1 -1 -1 -1 -1 -1 -1 -1 -1 -1 -1 -1 -1 -0 -0 -0 -1 -1 -1 -1 -1 -1 -1 -1 -1 -1 -1 -1 -1 -1 -1 -1 -1 -0 -0 -0 -1 -1 -1 -1 -1 -1 -1 -1 -1 -1 -1 -1 -1 -1 -1 -1 -1 -1 -1 -1 -1 -1 -1 -1 -1 -1 -1 -1 -1 -1 -1 -1 -1 -1 -1 -1 -1 -1 -1 -1 -1 -1
0 0 0 0 -0 -0 -1 -1 -1 -1 -1 -1 -1 -1 -1 -1 -1 -1 -1 -1 -1 -0 -0 -0 -0 -1 -1 -1 -1 -1 -1 -1 -1 -1 -1 -1 -1 -1 -1 -1 -1 -1 -1 -1 -1 -1 -1 -1 -1 -1 -1 -1 -1 -1 -1 -1 -1 -1 -0 -0 -0 -0 -1 -1 -1 -1 -1 -1 -1 -1 -1 -1 -1 -1 -1 -1 -1 -1 -1 -1 -1 -1 -1 -1 -1 -1 -1 -1 -1 -1 -1 -1 -1 -1 -1 -1 -1 -1 -1 -1 -1 -1 -1
0 0 0 0 0 -0 -0 -1 -1 -1 -1 -1 -1 -1 -1 -1 -1 -1 -1 -1 -1 -0 -0 -0 -0 -1 -1 -1 -1 -1 -1 -1 -1 -1 -1 -1 -1 -1 -1 -1 -1 -1 -1 -1 -1 -1 -1 -1 -1 -1 -1 -1 -1 -1 -1 -1 -1 -0 -0 -0 -0 -0 -0 -0 -1 -1 -1 -1 -1 -1 -1 -1 -1 -1 -1 -1 -1 -1 -1 -1 -1 -1 -1 -0 -0 -1 -1 -1 -1 -1 -1 -1 -1 -1 -1 -1 -1 -1 -1 -1 -1 -1 -1
1 0 0 0 0 -0 -0 -0 -1 -1 -1 -1 -1 -1 -1 -1 -1 -1 -1 -1 -1 -0 0 0 -0 -1 -1 -1 -1 -1 -1 -1 -1 -1 -1 -1 -1 -1 -1 -1 -1 -1 -1 -1 -1 -1 -1 -1 -1 -1 -1 -1 -1 -1 -1 -1 -1 -1 -0 -0 -1 -1 -1 -1 -1 -1 -1 -1 -1 -1 -1 -1 -1 -1 -1 -1 -1 -1 -1 -1 -1 -1 -0 -0 -0 -0 -0 -1 -1 -1 -1 -1 -1 -1 -1 -1 -1 -1 -1 -1 -1 -1 -1
1 1 0 0 0 -0 -0 -0 -1 -1 -1 -1 -1 -1 -1 -1 -1 -1 -1 -1 -0 -0 0 0 0 -0 -1 -1 -1 -1 -1 -1 -1 -1 -1 -1 -1 -1 -1 -1 -1 -1 -1 -1 -1 -1 -1 -1 -1 -1 -1 -1 -1 -1 -1 -1 -1 -1 -1 -1 -1 -1 -1 -1 -1 -1 -1 -1 -1 -1 -1 -1 -1 -1 -1 -1 -1 -1 -1 -1 -1 -1 -1 -0 -0 -0 -0 -1 -1 -1 -1 -1 -1 -1 -1 -1 -1 -1 -1 -1 -0 -1 -1
1 1 1 1 0 -0 -1 -1 -1 -0 -0 -0 -0 -1 -1 -1 -1 -1 -1 -0 -0 0 0 1 0 -0 -1 -1 -1 -1 -1 -1 -1 -1 -1 -1 -1 -1 -1 -1 -1 -1 -1 -1 -1 -1 -0 -0 -0 -0 -1 -1 -1 -1 -1 -1 -1 -1 -1 -1 -1 -1 -1 -1 -1 -1 -1 -1 -1 -1 -1 -1 -1 -1 -1 -1 -0 -0 -0 -1 -1 -1 -1 -0 -0 -0 -0 -0 -1 -1 -1 -1 -0 -0 -1 -1 -1 -1 -1 -1 -0 -0 -1
1 1 1 1 1 0 -1 -1 -1 -0 0 0 -0 -1 -1 -1 -1 -1 -1 -0 -0 0 1 1 1 0 -1 -1 -1 -2 -2 -1 -1 -1 -0 -1 -1 -1 -1 -1 -1 -1 -1 -1 -1 -1 -0 -0 -0 -0 -1 -0 -0 -1 -1 -1 -1 -1 -1 -1 -1 -0 -1 -1 -1 -1 -1 -1 -1 -1 -1 -1 -1 -1 -1 -1 -1 -1 -0 -1 -0 -0 -1 -1 -1 -1 -1 -1 -1 -1 -1 -0 -0 -0 -0 -1 -1 -1 -1 -1 -0 -0 -1
1 1 1 1 1 1 -0 -1 -1 -0 1 0 -0 -0 -1 -1 -1 -1 -0 -0 -0 0 0 1 1 0 -0 -1 -1 -1 -2 -1 -1 -0 -0 -1 -1 -1 -1 -1 -1 -1 -1 -1 -1 -1 -0 -0 -0 -0 -1 -0 -0 -0 -0 -1 -1 -1 -1 -1 -1 -1 -1 -1 -1 -1 -1 -1 -1 -1 -1 -1 -1 -1 -1 -1 -1 -1 -1 -1 -1 -0 -0 -0 -0 -0 -0 -1 -1 -1 -1 -1 -0 -0 -0 -1 -1 -1 -1 -1 -1 -1 -1
1 1 1 1 1 1 0 -1 -1 -0 1 1 0 -0 -1 -0 -0 -0 -0 -0 -0 0 0 0 0 0 -0 -1 -1 -1 -1 -1 -0 -0 -0 -1 -1 -1 -1 -1 -1 -1 -1 -1 -1 -1 -1 -0 -0 -0 -0 -0 -0 -0 -0 -0 -0 -0 -0 -1 -1 -1 -1 -1 -1 -0 -1 -1 -1 -1 -1 -1 -1 -1 -1 -1 -1 -1 -1 -1 -1 -1 -1 -1 -1 -1 -0 -1 -1 -1 -1 -1 -0 -0 -1 -1 -1 -1 -1 -1 -1 -1 -1
2 1 1 1 1 2 1 -1 -1 -0 1 0 0 -0 -0 -0 0 0 0 0 0 0 0 0 0 0 -0 -0 -1 -1 -1 -0 0 0 -0 -0 -0 -0 -1 -1 -1 -1 -1 -1 -1 -1 -1 -0 -0 -0 -0 -0 -0 -0 -0 -0 -0 -0 -0 -0 -0 -1 -1 -0 -0 -0 -1 -1 -1 -1 -1 -1 -1 -1 -1 -1 -1 -1 -1 -1 -1 -1 -1 -1 -1 -1 -1 -1 -1 -1 -1 -0 -0 -0 -1 -1 -1 -1 -1 -1 -1 -1 -1
2 1 0 1 1 1 1 -0 -1 -0 0 0 -0 -0 -0 0 0 1 1 1 0 0 -0 -0 -0 -0 -0 -0 -0 -0 -0 0 0 0 0 0 -0 -0 -0 -0 -0 -0 -1 -1 -1 -1 -1 -0 -0 -0 -0 -0 -0 -0 -0 -0 -0 -0 -0 -0 -0 -0 -0 -0 -0 -0 -0 -0 -0 -0 -0 -0 -1 -1 -1 -0 -1 -1 -1 -1 -1 -1 -1 -1 -1 -1 -1 -1 -1 -1 -1 -0 -0 -1 -1 -1 -1 -1 -1 -1 -1 -1 -1
1 1 -0 0 1 2 1 1 0 -0 -0 -0 -0 -0 -0 0 1 1 1 1 1 0 -0 -0 -0 -0 -0 -0 0 0 0 0 1 1 0 0 0 0 -0 -0 -0 -0 -0 -1 -1 -1 -1 -1 -0 -0 -0 -0 -0 -0 -0 0 0 0 -0 -0 -0 -0 -0 -0 -0 -0 -0 -0 -0 -0 -0 -0 -0 -0 -1 -0 -0 -0 -1 -1 -1 -1 -1 -1 -1 -1 -1 -1 -1 -1 -1 -0 -1 -1 -1 -2 -1 -1 -1 -1 -1 -1 -1
0 -0 -1 -0 1 2 2 2 1 0 -1 -1 -1 -0 -0 0 1 1 1 1 1 0 -0 -0 -1 -0 -0 0 0 0 0 1 1 1 0 0 0 0 0 0 -0 -0 -0 -1 -1 -1 -1 -0 -0 -0 0 0 0 0 -0 0 0 0 0 0 0 0 0 0 0 -0 0 0 0 0 -0 -0 -0 -0 -0 -0 -0 -0 -0 -1 -1 -1 -1 -1 -1 -1 -1 -1 -1 -1 -1 -0 -1 -1 -2 -2 -1 -1 -1 -1 -1 -1 -1
-0 -0 -1 -0 1 3 4 3 2 0 -1 -1 -1 -1 -1 -0 1 2 1 1 0 -0 -0 -0 -1 -1 -0 0 0 0 1 1 0 0 0 0 0 0 -0 -0 -0 -0 -0 -1 -1 -0 -0 -0 0 0 0 0 0 0 -0 0 1 1 1 1 0 0 0 0 0 0 0 0 0 0 -0 -0 -0 -0 -0 -0 -0 -0 -0 -0 -1 -1 -1 -1 -2 -2 -2 -2 -1 -1 -1 -0 -0 -1 -1 -1 -1 -1 -1 -1 -1 -1 -1
-1 -1 -1 -0 2 5 7 4 1 -1 -1 -1 -1 -1 -1 -1 1 1 1 0 -0 -0 -0 -0 -0 -0 -0 0 0 1 1 0 0 0 0 -0 -0 -0 -0 -0 -0 -1 -1 -1 -1 -0 -0 0 0 0 1 0 0 -0 -0 0 1 1 1 1 1 1 1 1 1 1 1 0 0 0 -0 -0 -0 -0 -0 -0 -0 -0 -0 -0 -0 -1 -1 -1 -1 -2 -2 -2 -2 -2 -1 -1 -0 -1 -1 -1 -1 -1 -1 -1 -1 -1 -1
-1 -1 -0 -1 2 5 7 4 1 -1 -1 -1 -1 -2 -2 -1 0 1 1 -0 -0 -0 0 0 -0 -0 0 0 0 0 0 0 0 -0 -0 -0 -0 -0 -0 -1 -1 -1 -1 -1 -1 -0 -0 0 0 0 0 0 0 -0 -1 -0 0 1 1 1 1 1 1 1 1 1 1 0 0 0 -0 -0 -0 -1 -1 -1 -0 -0 -0 -0 -0 -1 -0 -0 -1 -1 -2 -2 -2 -2 -2 -1 -1 -1 -1 -1 -1 -1 -1 -1 -1 -1 -1
-2 -1 -0 -1 0 2 4 3 1 -0 -0 -1 -1 -1 -2 -1 0 1 1 -0 -0 -0 0 0 0 0 0 0 0 0 0 0 -0 -0 -0 -0 -0 -0 -1 -1 -1 -1 -1 -1 -1 -1 -0 -0 -0 0 0 0 0 -0 -1 -1 -0 1 1 1 0 0 0 0 0 0 0 0 0 -0 -0 -0 -1 -1 -1 -1 -1 -0 -0 -0 -0 -1 -1 -0 -0 -0 -1 -1 -2 -2 -2 -2 -2 -1 -1 -1 -1 -1 -1 -1 -1 -1 -1
-2 -1 0 -0 -0 0 1 2 2 1 0 -0 -0 -1 -1 -1 0 1 1 0 -0 0 1 1 1 1 1 0 0 0 0 0 0 -0 -0 -0 -0 -1 -1 -1 -1 -1 -1 -1 -1 -0 -0 -0 -0 -0 -0 0 0 -0 -1 -1 -1 1 1 1 0 -0 -0 -0 -0 -0 0 -0 -0 -0 -0 -1 -1 -1 -1 -1 -1 -1 -0 -0 -0 -1 -1 -1 -0 -0 -0 -1 -1 -2 -2 -2 -2 -2 -1 -1 -1 -1 -1 -1 -1 -1 -1
-2 -1 -0 -0 -0 -0 0 1 1 1 1 0 0 0 -0 0 1 1 1 1 0 0 1 1 1 1 1 1 0 0 1 0 0 0 0 -0 -0 -1 -1 -1 -1 -1 -1 -1 -1 -0 -1 -1 -1 -1 -0 0 0 -0 -1 -2 -1 -0 1 1 0 -0 -0 -0 -0 -0 -0 -0 -0 -1 -1 -1 -1 -1 -1 -1 -1 -1 -1 -1 -1 -1 -1 -1 -1 -1 -1 -1 -1 -1 -1 -2 -2 -2 -2 -1 -1 -1 -1 -1 -1 -1 -1
-2 -2 -1 -0 -1 -1 -1 -0 0 1 1 1 1 1 1 1 1 1 1 1 1 0 1 1 1 1 1 1 1 1 1 1 1 1 1 0 0 -0 -0 -0 -0 -0 -0 -0 -0 -0 -1 -1 -1 -1 -1 0 1 1 -0 -2 -2 -1 0 1 0 0 -0 -0 -0 -0 -0 -0 -1 -1 -1 -1 -1 -1 -1 -1 -1 -1 -1 -1 -1 -1 -1 -1 -1 -1 -1 -1 -1 -1 -1 -1 -2 -2 -2 -2 -1 -1 -1 -1 -1 -1 -1
-2 -1 -1 -1 -1 -1 -1 -1 -1 -0 0 0 1 1 1 1 2 2 2 1 1 1 1 1 1 1 1 1 1 1 1 1 1 1 1 1 1 0 0 0 0 0 -0 -0 -0 -1 -1 -1 -1 -1 -0 0 1 1 0 -1 -1 -1 -0 0 0 0 -0 -0 -0 -0 -0 -0 -1 -1 -1 -1 -1 -1 -1 -1 -1 -1 -1 -1 -1 -1 -1 -1 -1 -1 -1 -1 -1 -2 -2 -2 -2 -2 -2 -2 -1 -1 -0 -0 -1 -1 -1
-1 -1 -1 -1 -1 -1 -1 -1 -1 -1 -1 -0 1 1 1 1 2 2 2 2 1 1 1 1 1 1 2 2 1 1 1 1 1 2 1 1 1 1 1 1 1 0 0 -0 -0 -1 -1 -1 -1 -1 -0 0 1 1 1 -1 -1 -1 -0 0 0 0 -0 -0 -0 -0 -0 -0 -1 -1 -1 -1 -1 -1 -1 -1 -1 -1 -1 -1 -1 -1 -1 -1 -1 -1 -0 -1 -1 -1 -2 -2 -2 -2 -2 -2 -2 -1 -1 -0 -0 -1 -1
-0 -0 -0 -1 -1 -1 -0 -0 -0 -0 -0 0 1 1 0 1 2 2 2 2 1 1 1 1 1 1 2 2 2 1 1 1 2 2 2 1 1 1 1 1 1 1 0 -0 -0 -1 -1 -1 -1 -1 -0 0 1 1 1 -1 -1 -1 -0 0 0 0 -0 -0 -0 -0 -0 -0 -1 -1 -1 -1 -1 -1 -1 -1 -1 -1 -1 -1 -1 -1 -1 -1 -1 -1 -1 -0 -0 -1 -2 -2 -2 -2 -2 -2 -2 -2 -1 -0 -0 -1 -1
0 1 0 0 -0 -0 0 1 1 1 1 1 1 1 0 1 1 2 2 1 1 1 1 1 1 1 2 2 1 1 1 2 2 2 2 2 1 1 1 1 1 1 0 0 -0 -1 -1 -1 -1 -0 -0 -0 0 1 1 -1 -1 -1 -0 -0 0 0 -0 -0 -0 -0 -0 -0 -0 -1 -1 -1 -1 -1 -1 -1 -1 -1 -1 -1 -1 -1 -1 -1 -1 -1 -1 -0 -0 -0 -1 -2 -2 -2 -2 -2 -2 -2 -1 -1 -1 -1 -1
1 2 1 1 0 0 0 1 1 1 1 1 1 1 1 1 1 2 2 1 1 1 1 1 1 1 2 1 1 1 1 2 2 2 1 1 1 1 1 1 1 1 1 0 -0 -0 -0 -0 -0 -0 -0 -0 -0 0 0 -1 -1 -2 -1 -0 -0 -0 -0 -0 -0 -1 -0 -0 -0 -0 -0 -0 -0 -0 -1 -1 -1 -1 -1 -1 -1 -1 -1 -1 -1 -1 -1 -1 -0 -0 -0 -1 -2 -2 -2 -3 -2 -2 -1 -1 -1 -1 -1
1 2 1 1 0 0 1 1 1 1 1 1 1 1 2 1 1 1 2 1 1 0 0 1 1 1 1 1 1 1 1 2 2 1 1 1 1 1 1 1 1 1 1 0 0 -0 -0 -0 -0 -0 -0 -1 -1 -0 -0 -1 -2 -2 -2 -1 -0 -0 0 -0 -0 -0 -0 -0 0 0 -0 -0 -0 -0 -0 -0 -1 -1 -1 -1 -1 -1 -2 -2 -2 -2 -2 -1 -1 -1 -0 -0 -1 -1 -2 -3 -3 -2 -2 -1 -0 -0 -0
3 2 1 0 0 0 1 1 1 1 1 1 1 1 2 2 1 1 1 1 1 0 1 1 1 1 1 1 1 1 1 1 1 1 1 1 1 1 1 1 1 1 1 1 0 -0 -0 -0 -0 -0 -0 -1 -1 -1 -1 -1 -2 -2 -2 -1 -1 -0 0 -0 -0 -1 -0 -0 0 0 0 0 -0 -0 -0 -0 -0 -1 -1 -1 -1 -1 -2 -2 -2 -2 -2 -2 -2 -1 -1 -0 -0 -0 -1 -2 -3 -3 -2 -1 -0 0 1
2 1 0 -0 0 1 1 0 1 1 1 1 1 1 1 2 1 1 1 1 1 1 1 1 1 1 1 1 1 2 2 1 1 1 2 2 2 2 2 2 1 1 1 1 0 -0 -0 0 0 0 0 -0 -1 -1 -0 -0 -1 -2 -2 -1 -1 0 1 0 -0 -1 -0 -0 0 0 0 0 -0 -0 -0 -0 -0 -1 -1 -1 -1 -1 -1 -2 -2 -2 -2 -2 -2 -1 -1 -1 -0 0 0 -1 -2 -3 -3 -2 -1 0 1
-4 -4 -2 -2 -1 0 0 0 1 1 1 2 2 1 1 1 1 1 0 0 1 1 1 1 1 1 1 2 2 2 1 1 1 2 2 2 2 2 2 1 1 1 1 0 0 0 0 0 0 0 0 0 -0 -0 -0 0 0 -0 -1 -2 -1 -0 0 0 -0 -1 -1 -0 -0 -0 -0 -0 -0 -0 -0 -0 -0 -0 -0 -1 -1 -1 -1 -1 -2 -2 -2 -2 -2 -2 -1 -1 -1 -0 0 0 -1 -2 -3 -3 -2 -1 0
-5 -5 -6 -3 -2 -1 -1 -0 0 1 1 1 1 1 0 1 1 1 0 1 1 1 2 2 2 2 2 2 2 2 1 1 2 2 2 2 1 1 1 1 1 1 1 0 0 0 0 0 -0 -0 0 0 -0 0 0 1 2 1 -0 -1 -1 -1 -0 -0 -0 -1 -1 -1 -1 -1 -0 -1 -1 -1 -1 -1 -1 -0 -0 -1 -1 -1 -1 -1 -1 -2 -2 -2 -2 -2 -2 -1 -1 -1 -0 0 0 -1 -2 -2 -2 -2 -1
12 8 -1 -2 -2 -2 -2 -1 -0 -1 -1 -0 0 0 0 1 1 1 0 1 1 1 1 2 2 2 2 2 2 2 2 2 2 2 2 1 1 1 1 0 1 1 0 0 0 0 -0 -0 -1 -0 -0 -0 0 0 1 1 2 2 1 -1 -1 -1 -1 -0 -0 -0 -0 -1 -1 -1 -1 -1 -1 -1 -1 -1 -1 -1 -1 -1 -1 -1 -1 -1 -1 -1 -2 -1 -2 -2 -2 -2 -1 -1 -0 -0 0 -0 -1 -2 -2 -1 -0
29 24 13 4 -1 -4 -3 -2 -2 -2 -2 -1 0 1 0 0 -0 -0 0 0 0 1 1 1 1 1 1 2 2 2 2 2 2 2 1 1 1 1 0 -0 0 0 -0 -0 -0 -0 -1 -1 -1 -1 -0 -0 0 0 1 1 2 2 2 1 -1 -2 -1 -1 -0 -0 -0 -1 -1 -1 -1 -1 -1 -1 -1 -1 -1 -1 -1 -1 -1 -1 -1 -1 -1 -1 -1 -1 -1 -1 -2 -2 -1 -1 -1 -0 -0 -0 -1 -1 -1 -0 1
32 29 22 11 1 -4 -3 -1 -2 -2 -1 0 1 1 1 -0 -0 -0 0 0 1 1 1 1 0 0 0 1 1 2 2 2 2 1 1 1 1 0 -0 -0 -0 -0 -1 -1 -1 -1 -1 -1 -1 -0 -0 -0 -0 0 0 1 1 2 3 2 0 -1 -2 -1 -1 -0 -0 -0 -1 -1 -1 -1 -1 -1 -1 -0 -0 -1 -1 -1 -1 -1 -1 -1 -1 -1 -1 -0 -0 -1 -1 -2 -2 -1 -1 -0 -0 -1 -1 -1 -0 0 -0
17 23 23 16 7 0 0 2 1 -0 1 2 2 2 1 -0 -0 0 1 1 1 1 0 -0 -1 -1 -1 -0 0 1 1 1 0 0 1 1 0 -0 -0 -0 -1 -1 -1 -1 -1 -1 -1 -0 0 0 -0 -1 -1 -0 0 0 0 1 2 3 2 -0 -1 -1 -1 -0 -0 -0 -0 -0 -0 -1 -1 -1 -0 -0 -0 -0 -1 -1 -1 -1 -1 -1 -1 -1 -0 0 0 0 -1 -1 -1 -1 -1 -0 -0 -1 -1 -1 -1 -1 -0
-0 8 18 25 23 17 12 10 6 2 2 3 3 2 1 0 -0 0 1 1 1 1 0 -0 0 0 -0 1 1 1 1 0 0 0 0 1 0 -0 -0 -0 -1 -1 -1 -1 -1 -1 -1 0 0 0 -0 -1 -1 -0 0 -0 -0 0 1 2 2 1 -0 -1 -1 -1 -0 -0 0 0 -0 -0 -0 -0 -0 0 0 -0 -1 -1 -1 -1 -1 -1 -1 -1 -0 0 0 0 -0 -1 -1 -1 -1 -0 0 0 -0 -1 -2 -1 1
-4 -0 9 25 35 36 28 18 9 3 1 2 3 3 2 1 0 1 1 1 1 1 1 1 1 1 1 1 2 2 1 1 0 0 0 1 1 1 0 0 -1 -1 -1 -1 -1 -1 -0 -0 0 -0 -1 -1 -1 -0 -0 -0 -0 -0 -0 1 2 2 1 0 -1 -2 -2 -1 -0 0 1 0 -0 -0 -0 0 0 -0 -0 -1 -1 -1 -1 -1 -1 -1 -1 -0 0 -0 -1 -1 -1 -1 -1 -0 1 1 0 -1 -2 -1 1
6 12 16 28 38 42 32 17 7 2 2 3 3 3 2 1 1 1 2 2 1 1 1 1 0 0 1 1 1 1 1 1 1 1 0 1 1 1 0 -0 -1 -1 -1 -2 -1 -1 -1 -1 -1 -0 -1 -1 -1 -0 -0 -0 -0 -1 -1 -0 0 1 3 2 1 -1 -3 -3 -2 -0 1 0 -0 -0 0 0 0 -0 -0 -0 -1 -1 -1 -1 -1 -1 -1 -0 -0 -1 -1 -2 -2 -2 -1 -0 1 1 1 0 -0 -0 -0
19 28 28 34 41 42 27 12 5 3 5 5 4 2 1 1 1 2 2 2 1 1 1 0 -0 0 1 1 1 1 0 0 0 0 0 0 0 0 -0 -0 -1 -1 -2 -2 -2 -2 -2 -1 -1 -1 -1 -1 -1 -0 -0 -0 -1 -1 -1 -1 -1 -0 2 3 3 1 -2 -4 -4 -2 -0 -0 -0 -0 -0 -0 -0 -0 -0 -0 -1 -1 -1 -1 -2 -2 -1 -1 -1 -1 -2 -2 -2 -2 -2 -1 0 1 2 2 2 1 -0
7 16 26 34 41 38 20 10 6 6 8 7 5 2 1 1 2 3 2 2 2 1 0 0 0 1 1 1 1 0 0 -0 0 0 -0 -0 -0 -0 -0 -0 -1 -1 -2 -2 -2 -2 -2 -1 -1 -1 -1 -1 -1 -1 -0 -1 -1 -1 -1 -2 -2 -2 -1 2 4 4 1 -3 -4 -4 -1 -1 -1 -0 -0 -0 -0 -1 -1 -1 -1 -1 -1 -1 -2 -2 -2 -1 -1 -1 -2 -3 -3 -3 -2 -2 -1 1 3 3 3 2 1
-0 8 24 35 37 30 17 12 9 8 8 6 4 2 -0 4 5 3 1 2 2 1 0 1 1 1 1 0 0 0 0 0 0 0 -0 -1 -1 -1 -0 -0 -1 -1 -2 -2 -2 -2 -2 -2 -1 -1 -1 -1 -0 -1 -1 -1 -1 -1 -2 -2 -2 -2 -2 -1 2 4 4 -0 -3 -3 -2 -1 -1 -1 -1 -1 -1 -1 -1 -1 -1 -1 -1 -1 -2 -2 -2 -1 -1 -1 -2 -3 -3 -3 -4 -4 -2 1 3 3 3 3 3
7 17 30 35 29 20 13 11 10 8 7 5 2 1 0 8 8 3 0 2 2 1 1 1 1 1 0 -0 -0 0 0 0 0 0 -0 -1 -1 -1 0 -0 -1 -1 -1 -2 -2 -3 -3 -3 -2 -1 -1 -0 -0 -1 -2 -2 -2 -2 -2 -2 -3 -2 -2 -2 -1 1 3 2 -1 -2 -2 -1 -1 -1 -1 -1 -1 -1 -1 -1 -1 -1 -1 -1 -2 -2 -2 -2 -2 -2 -2 -2 -3 -3 -5 -5 -3 -1 2 1 2 3 4
20 24 32 31 26 21 19 15 10 6 4 3 1 -0 1 12 11 5 -0 2 2 1 1 1 0 -0 -0 -1 -1 -0 0 0 0 -0 -1 -1 -1 -1 -0 -0 -1 -1 -1 -2 -2 -3 -4 -3 -3 -2 -1 -0 -0 -1 -2 -2 -2 -2 -2 -3 -3 -3 -2 -3 -2 -1 1 2 1 -1 -1 -1 -1 -1 -1 -1 -1 -1 -1 -1 -1 -1 -1 -2 -2 -2 -2 -2 -2 -2 -2 -2 -2 -3 -4 -5 -4 -2 0 0 1 2 3
21 18 18 20 22 23 23 16 8 3 2 1 0 -0 0 10 12 7 -1 1 2 1 1 -1 -1 -2 -1 -1 -1 -1 -1 -0 -1 -1 -1 -1 -1 -1 -1 -1 -1 -1 -1 -1 -2 -3 -4 -4 -3 -2 -2 -1 -1 -1 -2 -2 -2 -1 -2 -3 -3 -3 -3 -3 -3 -2 -1 1 1 0 -1 -1 -1 -1 -1 -1 -2 -1 -1 -1 -1 -1 -1 -2 -2 -2 -2 -2 -2 -2 -2 -2 -2 -2 -3 -4 -4 -3 -1 -0 1 1 2
13 6 3 5 8 9 9 6 3 1 1 0 -0 -1 -1 3 6 5 0 1 2 1 0 -3 -4 -3 -2 -1 -1 -1 -1 -1 -1 -1 -1 -1 -1 -0 -0 -1 -1 -1 -1 -2 -3 -4 -4 -3 -3 -2 -3 -2 -1 -1 -2 -2 -1 -1 -2 -2 -3 -3 -3 -3 -3 -2 -2 -0 0 1 0 -1 -1 -1 -1 -2 -2 -1 -1 -1 -1 -1 -1 -1 -2 -2 -2 -2 -2 -2 -2 -2 -2 -2 -3 -4 -4 -3 -2 -1 0 1 2
7 -1 -2 -1 0 1 1 0 0 1 1 -0 -1 -2 -3 -2 0 1 2 1 1 0 -1 -4 -4 -3 -2 -1 -0 -0 -1 -1 -1 -1 -1 -1 -0 0 0 -0 -0 -0 -1 -2 -3 -4 -4 -4 -3 -3 -3 -3 -2 -1 -1 -1 -1 -1 -1 -3 -3 -2 -2 -3 -3 -2 -2 -1 -0 0 0 -0 -1 -1 -1 -2 -2 -2 -1 -1 -1 -1 -1 -1 -1 -1 -1 -1 -1 -1 -2 -2 -2 -2 -2 -3 -4 -4 -3 -1 -0 1 2
5 -3 -5 -3 -2 -1 -0 -1 -1 -1 -1 -1 -2 -3 -4 -3 -1 1 2 1 -1 -2 -3 -4 -4 -3 -2 -1 0 1 0 -1 -1 -1 -1 -0 0 1 0 -0 -1 -0 -1 -2 -3 -4 -4 -4 -4 -4 -4 -3 -2 -1 -1 -1 -1 -0 -1 -3 -3 -2 -2 -3 -2 -2 -2 -1 -1 -1 -1 -0 0 0 0 -1 -2 -3 -2 -1 -1 -1 -1 -1 -1 -1 -1 -1 -0 -1 -1 -1 -1 -1 -2 -3 -4 -4 -4 -3 -1 0 2
5 -2 -6 -6 -5 -3 -1 -1 -2 -3 -3 -2 -2 -2 -3 -3 -1 1 3 -1 -3 -5 -4 -3 -2 -2 -2 -1 -0 1 1 -1 -1 -0 1 -0 -1 -1 -0 -0 -1 -2 -2 -1 -2 -3 -4 -3 -4 -4 -3 -3 -2 -2 -2 -2 -1 -1 -1 -2 -2 -2 -2 -2 -2 -2 -1 -1 -1 -2 -1 -1 -0 0 1 1 -0 -2 -3 -2 -1 -1 -1 -1 -1 -1 -1 -0 0 0 0 -0 -0 -1 -1 -2 -3 -4 -4 -4 -3 -1 1
4 1 -4 -5 -4 -3 -1 -2 -2 -2 -3 -2 -2 -1 0 2 3 3 1 -3 -4 -4 -3 -1 -0 0 -1 -1 -1 -0 -0 -1 -1 0 2 1 -2 -4 -3 -1 -1 -2 -3 -1 -1 -1 -2 -2 -3 -3 -2 -2 -2 -2 -3 -2 -1 -1 -1 -0 -1 -2 -3 -3 -2 -1 -1 -1 -2 -2 -2 -1 -1 -0 1 2 1 0 -1 -1 -1 -1 -0 -1 -1 -1 -1 -0 0 1 1 1 0 -0 -1 -2 -2 -3 -4 -4 -3 -2 -1
4 7 6 4 2 1 0 -1 -2 -2 -2 -2 -1 5 19 23 15 4 -4 -3 -1 -0 0 -0 0 1 1 -0 -1 -1 -1 -2 -1 0 0 -1 -1 -2 -4 -2 -2 -2 -2 -1 -0 -0 -2 -2 -2 -1 -0 -1 -2 -3 -4 -2 -2 -1 -0 1 0 -1 -3 -3 -3 -2 -0 -1 -2 -3 -2 -2 -1 -1 0 1 2 2 1 0 -0 -0 -1 -1 -1 -1 -1 -0 0 1 1 1 0 -0 -1 -1 -2 -2 -3 -3 -3 -3 -3
3 9 13 11 7 4 1 -1 -2 -2 -2 -2 -0 7 26 36 26 9 -3 -1 1 2 2 0 -1 -1 0 0 -1 -2 -2 -4 -2 1 0 -3 -2 -0 -1 -2 -1 -1 -1 -0 -0 -1 -2 -3 -1 1 2 0 -2 -3 -4 -2 -1 -1 -1 0 1 1 -1 -3 -3 -2 -0 -1 -2 -3 -3 -2 -2 -1 -0 0 1 1 2 1 1 0 -0 -1 -1 -1 -1 -0 0 1 1 -0 -1 -1 -1 -1 -1 -2 -2 -2 -2 -3 -3
1 6 10 9 6 3 1 -1 -1 -2 -2 -1 -0 3 12 26 24 14 3 3 3 3 2 1 -1 -2 -2 -0 -1 -2 -2 -3 -2 -1 0 -3 -3 -1 1 1 1 -1 -1 1 -0 -2 -1 -3 -1 1 2 -1 -3 -3 -3 -1 0 -0 -1 -0 1 1 1 -1 -2 -1 -1 -1 -3 -4 -4 -3 -2 -1 -1 -0 -0 0 1 1 2 1 1 -1 -2 -2 -2 -0 1 1 0 -1 -1 -2 -2 -2 -2 -2 -2 -2 -2 -2 -2
-1 1 3 2 1 -0 -1 -1 -1 -1 -1 -1 -1 -0 1 8 13 13 9 7 6 4 2 0 -1 -1 -3 -1 -0 -1 -2 -2 -2 -2 -0 -0 -1 -2 -1 2 -0 -3 -2 1 -1 -3 0 0 1 1 -1 -3 -3 -3 -2 -1 -1 -1 -1 -1 1 2 2 1 1 0 1 -1 -2 -4 -4 -4 -3 -2 -1 -1 -1 -1 -0 1 1 1 1 1 -1 -2 -3 -1 -0 1 1 -1 -1 -2 -2 -2 -3 -3 -3 -3 -2 -1 -1
-1 -1 -2 -2 -2 -1 -1 -1 -1 -1 -2 -2 -2 -2 -2 -0 3 5 6 6 5 3 1 0 0 -0 -1 -2 -2 -2 -2 -2 -1 -1 0 0 0 -1 -4 -3 -3 -4 -2 1 -1 -3 -2 4 5 2 -3 -2 -2 -2 -2 -3 -3 -3 -2 -2 -1 1 3 2 2 2 2 1 -1 -3 -4 -4 -3 -2 -1 -1 -1 -1 -1 -1 -0 1 1 1 1 -1 -3 -2 -1 -0 -0 -1 -1 -1 -1 -2 -3 -3 -3 -3 -2 -1 -1
1 -0 -2 -2 -2 -2 -2 -2 -2 -2 -2 -2 -2 -2 -2 -2 -1 -0 1 1 1 1 0 0 0 0 -0 -2 -2 -2 -2 -2 -1 0 1 -1 -1 -1 -4 -5 -4 -3 -3 -1 -2 -4 -5 2 4 3 1 1 -0 -1 -1 -3 -3 -4 -3 -5 -4 -2 0 1 2 2 1 0 -1 -2 -3 -3 -3 -3 -2 -2 -1 -1 -1 -1 -1 -1 0 1 2 1 -0 -2 -2 -1 -1 -1 -1 -1 -1 -2 -2 -2 -2 -2 -1 -1 -1
2 1 -1 -2 -2 -2 -2 -3 -3 -3 -2 -2 -2 -2 -2 -2 -2 -2 -1 -1 -1 -1 -1 -1 -1 -1 -1 -1 -2 -2 -1 -2 -2 -1 0 -2 -3 -2 -1 -1 -2 -4 -5 -4 -5 -4 -4 -1 1 1 2 4 3 1 1 -1 -1 -2 -2 -5 -6 -5 -3 -1 -0 -0 -1 -1 -1 -2 -3 -3 -3 -3 -3 -2 -1 -1 -1 -2 -2 -1 -1 0 2 3 2 0 -0 -1 -1 -2 -2 -3 -3 -3 -2 -2 -1 -1 -1 -1 -1
3 2 1 -1 -2 -2 -3 -3 -3 -3 -2 -2 -2 -2 -2 -3 -2 -2 -2 -2 -2 -2 -2 -2 -1 -2 -2 -2 -2 -2 -1 -2 -3 -4 -3 -3 -3 -3 -2 -1 -2 -3 -3 -5 -5 -4 -5 -1 0 -2 -5 2 4 4 4 2 1 0 -1 -4 -5 -5 -4 -2 -2 -1 -2 -2 -2 -2 -3 -3 -4 -4 -4 -2 -1 -1 -1 -2 -2 -2 -2 -1 1 3 3 2 1 0 0 -1 -3 -4 -5 -4 -3 -2 -1 -0 -0 -0 -0
2 2 1 -0 -1 -2 -3 -3 -4 -4 -3 -3 -3 -3 -3 -3 -3 -3 -3 -3 -4 -4 -3 -3 -2 -2 -3 -3 -3 -2 -1 -2 -3 -5 -7 -5 -3 -2 -2 -4 -4 -4 -3 -4 -4 -3 -6 -3 -2 -4 -7 -3 1 4 9 5 3 2 0 -2 -2 -2 -3 -2 -2 -2 -2 -1 -1 -1 -2 -2 -3 -5 -5 -3 -2 -2 -2 -2 -2 -2 -2 -2 -0 2 3 3 2 2 2 0 -2 -4 -6 -5 -3 -2 -1 -1 -0 -0 -0
1 1 -0 -1 -2 -2 -3 -4 -5 -5 -5 -4 -3 -2 -2 -2 -2 -2 -3 -4 -4 -4 -4 -4 -3 -3 -4 -4 -3 -2 -2 -1 -2 -3 -7 -7 -5 -3 -2 -4 -4 -3 -4 -4 -3 -3 -3 -4 -6 -7 -3 -5 -5 -3 5 8 8 6 2 1 -0 -1 -1 -1 -2 -3 -2 -1 -1 -0 -0 -1 -1 -3 -4 -4 -4 -3 -3 -2 -2 -2 -3 -2 -1 1 2 3 3 3 3 1 -2 -4 -5 -4 -3 -2 -2 -1 -1 -1 -0
-1 -2 -2 -3 -3 -3 -4 -4 -6 -7 -7 -6 -5 -4 -3 -2 -2 -2 -2 -3 -3 -3 -4 -4 -4 -4 -4 -3 -3 -3 -2 -2 -2 -2 -3 -6 -8 -7 -3 -3 -3 -2 -3 -4 -3 -3 -3 -4 -5 -5 -4 -6 -7 -8 -6 0 5 7 6 5 3 1 1 -0 -2 -3 -3 -2 -1 -1 -0 0 1 0 -1 -2 -3 -3 -4 -3 -3 -3 -4 -3 -2 -1 1 2 4 4 4 1 -2 -3 -4 -3 -2 -1 -1 -1 -1 -1 -1
-3 -4 -4 -5 -5 -5 -5 -5 -6 -7 -8 -8 -7 -7 -6 -5 -5 -4 -4 -4 -5 -5 -5 -5 -4 -4 -4 -3 -2 -2 -2 -1 -1 -1 -1 -3 -6 -7 -6 -5 -3 -2 -2 -3 -3 -3 -3 -5 -4 -3 -4 -6 -6 -7 -10 -9 -5 -0 2 6 6 5 3 1 -1 -3 -3 -3 -3 -2 -2 -1 1 2 2 1 0 -1 -2 -2 -3 -3 -4 -5 -4 -3 -1 0 3 4 4 2 -1 -3 -3 -3 -2 -1 -0 -0 -0 -0 -0
Height
5874 5875 5875 5876 5876 5877 5877 5878 5879 5879 5880 5880 5880 5881 5881 5881 5881 5882 5882 5882 5883 5883 5883 5884 5884 5884 5884 5884 5884 5885 5885 5885 5885 5885 5885 5885 5885 5885 5885 5885 5885 5886 5886 5886 5886 5886 5886 5886 5886 5886 5886 5886 5886 5886 5886 5886 5886 5886 5886 5886 5886 5886 5886 5886 5886 5886 5886 5885 5885 5885 5885 5885 5885 5885 5885 5885 5884 5884 5884 5884 5884 5883 5883 5883 5883 5882 5882 5882 5882 5881 5881 5881 5880 5880 5879 5879 5879 5878 5878 5878 5877 5877 5877
5873 5874 5874 5875 5875 5876 5876 5877 5878 5878 5879 5879 5879 5880 5880 5881 5881 5881 5881 5882 5882 5882 5883 5883 5883 5883 5883 5883 5883 5884 5884 5884 5884 5884 5884 5884 5884 5885 5885 5885 5885 5885 5885 5885 5885 5885 5885 5885 5885 5885 5885 5885 5885 5885 5885 5885 5885 5885 5885 5885 5885 5885 5885 5885 5885 5885 5885 5885 5884 5884 5884 5884 5884 5884 5884 5884 5883 5883 5883 5883 5883 5882 5882 5882 5882 5881 5881 5881 5881 5880 5880 5880 5879 5879 5879 5878 5878 5877 5877 5877 5876 5876 5876
5872 5872 5873 5874 5874 5875 5876 5876 5877 5877 5878 5878 5879 5879 5879 5880 5880 5880 5881 5881 5881 5881 5882 5882 5882 5882 5882 5882 5883 5883 5883 5883 5883 5883 5883 5883 5884 5884 5884 5884 5884 5884 5884 5884 5884 5884 5884 5884 5884 5884 5884 5884 5884 5884 5884 5884 5884 5884 5885 5885 5884 5884 5884 5884 5884 5884 5884 5884 5884 5883 5883 5883 5883 5883 5883 5882 5882 5882 5882 5882 5881 5881 5881 5881 5881 5881 5880 5880 5880 5879 5879 5878 5878 5878 5877 5877 5877 5876 5876 5876 5875 5875 5875
5871 5871 5872 5873 5873 5874 5874 5875 5876 5876 5877 5877 5878 5878 5878 5879 5879 5879 5880 5880 5881 5881 5881 5881 5881 5881 5881 5881 5882 5882 5882 5882 5882 5882 5882 5883 5883 5883 5883 5883 5883 5883 5883 5883 5883 5883 5883 5883 5883 5883 5883 5883 5883 5883 5883 5883 5883 5883 5884 5883 5883 5883 5883 5883 5883 5883 5883 5883 5883 5882 5882 5882 5882 5882 5882 5881 5881 5881 5881 5881 5881 5880 5880 5880 5880 5879 5879 5879 5878 5878 5878 5877 5877 5877 5876 5876 5876 5875 5875 5875 5874 5874 5873
5870 5871 5871 5871 5872 5873 5873 5874 5874 5875 5876 5876 5876 5877 5877 5878 5878 5878 5879 5879 5880 5880 5880 5881 5881 5881 5881 5881 5881 5881 5881 5881 5881 5881 5881 5882 5882 5882 5882 5882 5882 5882 5882 5882 5882 5882 5882 5882 5882 5882 5882 5882 5882 5882 5882 5882 5882 5882 5882 5882 5882 5882 5882 5882 5882 5882 5882 5882 5882 5881 5881 5881 5881 5881 5881 5881 5881 5881 5880 5880 5880 5879 5879 5879 5879 5878 5878 5877 5877 5877 5876 5876 5876 5876 5875 5875 5875 5874 5874 5874 5873 5873 5872
5869 5870 5871 5871 5871 5871 5872 5873 5873 5874 5874 5875 5876 5876 5876 5876 5877 5877 5878 5878 5878 5879 5879 5879 5880 5880 5880 5880 5880 5880 5880 5880 5880 5881 5881 5881 5881 5881 5881 5881 5881 5881 5881 5881 5881 5881 5881 5881 5881 5881 5881 5881 5881 5881 5881 5881 5881 5881 5881 5881 5881 5881 5881 5881 5881 5881 5881 5881 5881 5881 5881 5880 5880 5880 5880 5880 5880 5879 5879 5879 5879 5878 5878 5878 5877 5877 5877 5876 5876 5876 5876 5875 5875 5875 5874 5874 5873 5873 5873 5872 5872 5872 5871
5867 5868 5869 5871 5871 5871 5871 5871 5872 5872 5873 5874 5874 5875 5875 5875 5876 5876 5876 5877 5877 5878 5878 5878 5879 5879 5879 5879 5879 5879 5879 5879 5879 5880 5880 5880 5880 5880 5880 5880 5880 5880 5880 5880 5880 5880 5880 5880 5880 5880 5880 5880 5880 5880 5880 5880 5880 5880 5880 5881 5881 5881 5881 5880 5880 5880 5880 5880 5880 5880 5880 5879 5879 5879 5879 5879 5879 5878 5878 5878 5877 5877 5877 5877 5876 5876 5876 5875 5875 5875 5874 5874 5874 5874 5873 5873 5872 5872 5872 5871 5871 5871 5870
5866 5867 5868 5869 5869 5869 5870 5870 5871 5871 5872 5872 5873 5873 5874 5874 5875 5875 5876 5876 5876 5877 5877 5877 5877 5878 5878 5878 5878 5878 5878 5878 5878 5879 5879 5879 5879 5879 5879 5879 5879 5879 5879 5879 5879 5879 5879 5879 5879 5879 5879 5879 5879 5879 5879 5879 5879 5879 5879 5879 5879 5879 5879 5879 5879 5879 5879 5879 5879 5879 5878 5878 5878 5878 5878 5878 5877 5877 5877 5877 5876 5876 5876 5876 5876 5875 5875 5874 5874 5874 5873 5873 5873 5872 5872 5872 5871 5871 5871 5870 5870 5870 5869
5865 5866 5866 5867 5868 5868 5868 5869 5869 5870 5871 5871 5871 5872 5872 5873 5873 5874 5874 5875 5875 5876 5876 5876 5876 5876 5876 5876 5877 5877 5877 5877 5877 5877 5877 5877 5877 5877 5877 5877 5877 5877 5877 5877 5877 5878 5878 5878 5878 5878 5878 5878 5878 5878 5878 5878 5878 5878 5878 5878 5878 5878 5878 5878 5878 5878 5878 5878 5877 5877 5877 5877 5877 5877 5877 5876 5876 5876 5876 5876 5875 5875 5875 5875 5874 5874 5874 5873 5873 5873 5872 5872 5872 5871 5871 5871 5870 5870 5870 5869 5869 5868 5868
5864 5864 5865 5866 5866 5867 5867 5867 5868 5868 5869 5870 5870 5870 5871 5871 5872 5872 5873 5873 5874 5874 5875 5875 5875 5875 5876 5876 5876 5876 5876 5876 5876 5876 5876 5876 5876 5876 5876 5876 5876 5876 5876 5876 5876 5876 5876 5876 5876 5877 5877 5877 5877 5877 5877 5877 5877 5877 5877 5877 5877 5877 5877 5877 5877 5877 5877 5876 5876 5876 5876 5876 5876 5876 5876 5875 5875 5875 5875 5874 5874 5874 5874 5873 5873 5873 5872 5872 5872 5871 5871 5871 5871 5870 5870 5870 5869 5869 5868 5868 5867 5867 5867
5862 5863 5863 5864 5865 5865 5866 5866 5866 5867 5868 5868 5868 5869 5869 5870 5871 5871 5871 5872 5872 5873 5873 5873 5874 5874 5874 5874 5874 5875 5875 5875 5875 5875 5875 5875 5875 5875 5875 5875 5875 5875 5875 5875 5875 5875 5875 5875 5875 5876 5876 5876 5876 5876 5876 5876 5876 5876 5876 5876 5876 5876 5876 5876 5876 5876 5875 5875 5875 5875 5875 5875 5875 5874 5874 5874 5874 5874 5873 5873 5873 5872 5872 5872 5871 5871 5871 5871 5871 5870 5870 5870 5869 5869 5869 5868 5868 5867 5867 5867 5866 5866 5866
5861 5861 5862 5862 5863 5864 5864 5865 5865 5865 5866 5866 5867 5867 5868 5868 5869 5870 5870 5871 5871 5871 5871 5872 5872 5872 5873 5873 5873 5873 5873 5874 5874 5874 5874 5874 5874 5874 5874 5874 5874 5874 5874 5874 5874 5874 5874 5874 5874 5874 5874 5874 5874 5875 5875 5875 5875 5875 5875 5875 5875 5875 5875 5874 5874 5874 5874 5874 5874 5874 5874 5873 5873 5873 5873 5873 5873 5872 5872 5872 5871 5871 5871 5871 5870 5870 5870 5870 5869 5869 5869 5869 5868 5868 5867 5867 5866 5866 5866 5866 5865 5865 5864
5859 5859 5860 5861 5861 5862 5863 5863 5863 5864 5864 5865 5865 5866 5866 5867 5867 5868 5868 5869 5869 5869 5870 5870 5870 5871 5871 5871 5871 5872 5872 5872 5872 5872 5872 5872 5872 5872 5872 5872 5872 5872 5872 5872 5872 5872 5872 5873 5873 5873 5873 5873 5873 5873 5873 5873 5873 5873 5873 5873 5873 5873 5873 5873 5873 5873 5873 5872 5872 5872 5872 5872 5872 5872 5871 5871 5871 5871 5871 5871 5870 5870 5870 5869 5869 5869 5869 5868 5868 5868 5868 5867 5867 5866 5866 5866 5865 5865 5865 5864 5864 5863 5863
5857 5857 5858 5859 5860 5861 5862 5862 5862 5862 5862 5863 5864 5864 5865 5865 5866 5866 5867 5867 5867 5868 5868 5868 5869 5869 5869 5870 5870 5870 5871 5871 5871 5871 5871 5871 5871 5871 5871 5871 5871 5871 5871 5871 5871 5871 5871 5871 5871 5872 5872 5872 5872 5872 5872 5872 5872 5872 5872 5872 5872 5872 5872 5871 5871 5871 5871 5871 5871 5871 5871 5871 5871 5870 5870 5870 5870 5870 5869 5869 5869 5868 5868 5868 5867 5867 5867 5867 5867 5866 5866 5866 5866 5865 5865 5864 5864 5863 5863 5863 5862 5862 5861
5855 5856 5856 5857 5859 5860 5862 5861 5861 5861 5861 5861 5862 5862 5863 5863 5864 5865 5865 5865 5866 5866 5866 5866 5867 5867 5868 5868 5868 5869 5869 5869 5869 5869 5869 5869 5870 5870 5870 5870 5870 5870 5870 5870 5870 5870 5870 5870 5870 5870 5871 5871 5871 5871 5871 5871 5871 5871 5871 5871 5871 5871 5870 5870 5870 5870 5870 5870 5869 5869 5869 5869 5869 5869 5869 5869 5868 5868 5868 5868 5867 5867 5867 5866 5866 5866 5866 5865 5865 5865 5865 5865 5864 5864 5863 5863 5862 5862 5862 5861 5861 5861 5860
5853 5854 5855 5856 5857 5859 5859 5859 5859 5860 5860 5860 5860 5861 5861 5861 5862 5863 5863 5863 5864 5864 5864 5865 5865 5866 5866 5866 5866 5867 5867 5867 5867 5868 5868 5868 5868 5868 5868 5868 5868 5868 5868 5868 5868 5868 5869 5869 5869 5869 5869 5869 5869 5869 5869 5869 5869 5869 5869 5869 5869 5869 5869 5869 5869 5868 5868 5868 5868 5868 5868 5867 5867 5867 5867 5867 5867 5867 5866 5866 5866 5866 5866 5865 5865 5864 5864 5864 5863 5863 5863 5863 5863 5862 5862 5861 5861 5861 5860 5860 5860 5859 5859
5851 5852 5853 5854 5856 5857 5856 5857 5857 5858 5858 5858 5858 5859 5859 5860 5861 5861 5861 5861 5862 5862 5863 5863 5863 5864 5864 5864 5865 5865 5865 5866 5866 5866 5866 5866 5866 5866 5866 5866 5866 5866 5866 5866 5867 5867 5867 5867 5867 5867 5868 5868 5868 5867 5867 5868 5868 5868 5868 5868 5868 5867 5867 5867 5867 5867 5867 5867 5866 5866 5866 5866 5866 5866 5866 5866 5866 5865 5865 5865 5865 5864 5864 5864 5863 5863 5862 5862 5862 5861 5861 5861 5861 5861 5860 5860 5860 5859 5859 5858 5858 5857 5857
5849 5850 5851 5852 5853 5854 5854 5855 5855 5856 5856 5856 5856 5857 5857 5858 5859 5859 5860 5860 5860 5861 5861 5861 5861 5862 5862 5863 5863 5863 5863 5864 5864 5864 5864 5864 5864 5864 5864 5864 5865 5865 5865 5865 5865 5865 5866 5866 5866 5866 5866 5866 5866 5866 5866 5866 5866 5866 5866 5866 5866 5866 5866 5866 5866 5866 5866 5865 5865 5865 5865 5865 5864 5864 5864 5864 5864 5864 5863 5863 5863 5863 5862 5862 5862 5861 5861 5861 5860 5860 5860 5860 5859 5859 5859 5858 5858 5858 5857 5857 5856 5856 5856
5847 5848 5849 5850 5851 5851 5852 5853 5853 5854 5854 5854 5855 5855 5856 5856 5857 5857 5857 5858 5858 5858 5859 5859 5860 5860 5861 5861 5861 5861 5861 5862 5862 5862 5862 5862 5862 5862 5862 5862 5863 5863 5863 5863 5863 5864 5864 5864 5864 5864 5864 5865 5865 5864 5864 5864 5865 5865 5865 5865 5865 5864 5864 5864 5864 5864 5864 5864 5864 5863 5863 5863 5863 5863 5862 5862 5862 5862 5862 5861 5861 5861 5861 5861 5860 5860 5860 5859 5859 5859 5858 5858 5857 5857 5857 5857 5856 5856 5856 5855 5855 5854 5854
5845 5846 5847 5848 5848 5849 5850 5851 5851 5852 5852 5853 5853 5853 5854 5854 5855 5855 5856 5856 5856 5856 5857 5857 5858 5858 5859 5859 5859 5859 5860 5860 5860 5860 5860 5860 5860 5861 5861 5861 5861 5861 5861 5861 5862 5862 5862 5862 5862 5862 5863 5863 5863 5863 5863 5862 5863 5863 5863 5863 5863 5863 5863 5863 5862 5862 5862 5862 5862 5862 5862 5861 5861 5861 5861 5861 5861 5860 5860 5860 5860 5859 5859 5859 5859 5858 5858 5858 5857 5857 5857 5856 5856 5856 5855 5855 5855 5854 5854 5854 5853 5853 5852
5842 5844 5845 5846 5846 5847 5848 5849 5849 5850 5851 5851 5851 5851 5852 5852 5853 5853 5853 5854 5854 5854 5855 5855 5856 5856 5856 5857 5857 5857 5858 5858 5858 5858 5858 5858 5858 5858 5859 5859 5859 5859 5859 5860 5860 5860 5860 5861 5861 5861 5861 5861 5861 5861 5861 5861 5861 5861 5861 5861 5861 5861 5861 5861 5861 5861 5861 5861 5861 5860 5860 5860 5860 5860 5859 5859 5859 5859 5858 5858 5858 5857 5857 5857 5857 5856 5856 5856 5856 5856 5855 5855 5854 5854 5854 5853 5853 5853 5852 5852 5851 5851 5850
5841 5841 5842 5843 5844 5845 5846 5846 5847 5848 5848 5849 5850 5850 5850 5851 5851 5851 5851 5852 5852 5852 5853 5853 5854 5854 5854 5855 5855 5855 5856 5856 5856 5856 5856 5856 5856 5857 5857 5857 5857 5857 5857 5858 5858 5858 5858 5859 5859 5859 5859 5860 5860 5860 5860 5859 5859 5859 5860 5860 5860 5860 5860 5860 5859 5859 5859 5859 5859 5859 5859 5858 5858 5858 5858 5857 5857 5857 5857 5856 5856 5856 5856 5855 5855 5855 5855 5854 5854 5854 5853 5853 5853 5852 5852 5851 5851 5851 5851 5850 5850 5849 5849
5839 5840 5841 5841 5842 5843 5844 5844 5845 5846 5846 5847 5848 5848 5848 5849 5849 5849 5850 5850 5850 5850 5851 5851 5851 5852 5852 5853 5853 5853 5853 5854 5854 5854 5854 5855 5855 5855 5855 5855 5856 5856 5856 5856 5856 5856 5856 5857 5857 5857 5857 5858 5858 5858 5858 5858 5858 5858 5858 5858 5858 5858 5858 5858 5858 5858 5857 5857 5857 5857 5857 5857 5856 5856 5856 5856 5856 5855 5855 5855 5854 5854 5854 5853 5853 5853 5853 5853 5852 5852 5851 5851 5851 5851 5850 5850 5849 5849 5849 5848 5848 5847 5847
5837 5838 5838 5839 5840 5841 5841 5842 5843 5844 5844 5845 5846 5846 5846 5847 5847 5848 5848 5848 5848 5848 5849 5849 5850 5850 5851 5851 5851 5851 5851 5852 5852 5852 5852 5853 5853 5853 5853 5854 5854 5854 5854 5854 5854 5854 5855 5855 5855 5856 5856 5856 5856 5856 5856 5856 5856 5856 5856 5856 5856 5856 5856 5856 5856 5856 5856 5856 5856 5856 5855 5855 5855 5855 5854 5854 5854 5853 5853 5853 5852 5852 5852 5852 5851 5851 5851 5851 5851 5850 5850 5850 5849 5849 5848 5848 5847 5847 5847 5847 5846 5846 5845
5835 5836 5836 5837 5838 5838 5839 5840 5841 5841 5842 5843 5843 5844 5844 5845 5846 5846 5846 5846 5846 5847 5847 5847 5848 5848 5849 5849 5849 5849 5850 5850 5850 5851 5851 5851 5851 5851 5851 5852 5852 5852 5852 5852 5852 5852 5853 5853 5853 5854 5854 5854 5854 5854 5854 5854 5854 5854 5854 5855 5855 5854 5854 5854 5854 5854 5854 5854 5854 5854 5853 5853 5853 5853 5852 5852 5852 5852 5851 5851 5851 5851 5850 5850 5850 5849 5849 5849 5849 5849 5848 5848 5847 5847 5846 5846 5846 5845 5845 5845 5844 5844 5844
5833 5833 5834 5835 5835 5836 5837 5837 5838 5839 5840 5841 5841 5841 5842 5843 5843 5844 5844 5844 5845 5845 5845 5846 5846 5846 5846 5847 5847 5847 5848 5848 5848 5848 5849 5849 5849 5849 5850 5850 5850 5850 5850 5850 5851 5851 5851 5851 5851 5852 5852 5852 5852 5852 5852 5852 5852 5852 5852 5853 5853 5852 5852 5852 5852 5852 5852 5852 5852 5852 5851 5851 5851 5851 5851 5851 5850 5850 5850 5849 5849 5849 5848 5848 5848 5847 5847 5847 5847 5847 5846 5846 5846 5845 5845 5844 5844 5843 5843 5843 5842 5842 5842
5830 5831 5831 5832 5833 5833 5834 5835 5836 5837 5837 5838 5839 5839 5840 5841 5841 5842 5842 5842 5843 5843 5843 5844 5844 5844 5845 5845 5845 5846 5846 5846 5846 5846 5847 5847 5847 5847 5848 5848 5848 5848 5848 5848 5849 5849 5849 5849 5850 5850 5850 5850 5851 5851 5851 5850 5850 5850 5851 5851 5851 5851 5851 5850 5850 5850 5850 5850 5850 5850 5850 5850 5849 5849 5849 5848 5848 5848 5848 5847 5847 5847 5846 5846 5846 5846 5845 5845 5845 5845 5845 5844 5844 5843 5843 5842 5841 5841 5841 5841 5841 5840 5840
5827 5828 5829 5829 5830 5831 5832 5832 5833 5834 5835 5836 5836 5837 5838 5838 5839 5840 5840 5840 5841 5841 5841 5842 5842 5842 5843 5843 5844 5844 5844 5844 5844 5845 5845 5845 5845 5846 5846 5846 5846 5846 5846 5846 5847 5847 5847 5847 5848 5848 5848 5849 5849 5849 5849 5849 5848 5848 5848 5848 5849 5849 5848 5848 5848 5848 5848 5848 5848 5848 5847 5847 5847 5847 5847 5846 5846 5846 5846 5846 5845 5845 5845 5844 5844 5844 5843 5843 5843 5843 5843 5842 5842 5841 5841 5840 5840 5839 5839 5839 5838 5838 5838
5825 5826 5826 5827 5827 5828 5829 5830 5831 5831 5832 5833 5834 5834 5835 5836 5836 5837 5838 5838 5839 5839 5840 5840 5840 5841 5841 5841 5842 5842 5842 5842 5842 5843 5843 5843 5843 5843 5844 5844 5844 5844 5844 5845 5845 5845 5846 5846 5846 5846 5846 5847 5847 5847 5847 5847 5847 5846 5846 5846 5846 5846 5846 5846 5846 5846 5846 5846 5846 5846 5846 5845 5845 5845 5845 5845 5844 5844 5844 5843 5843 5843 5842 5842 5842 5842 5841 5841 5841 5841 5841 5840 5840 5840 5839 5838 5838 5837 5836 5836 5836 5836 5836
5823 5823 5824 5824 5825 5826 5826 5827 5828 5828 5829 5830 5831 5831 5832 5833 5834 5835 5835 5836 5836 5837 5837 5838 5838 5839 5839 5839 5840 5840 5840 5840 5841 5841 5841 5841 5841 5841 5842 5842 5842 5842 5842 5843 5843 5843 5844 5844 5844 5845 5845 5845 5845 5845 5845 5845 5845 5845 5844 5844 5844 5844 5844 5844 5844 5844 5844 5844 5843 5843 5843 5843 5843 5843 5843 5842 5842 5842 5842 5841 5841 5841 5841 5840 5840 5840 5839 5839 5839 5839 5838 5838 5838 5837 5837 5837 5836 5835 5835 5834 5834 5834 5833
5819 5820 5820 5821 5822 5822 5823 5824 5825 5825 5826 5826 5827 5828 5830 5831 5831 5832 5833 5834 5834 5835 5835 5836 5836 5836 5837 5837 5838 5838 5838 5838 5839 5839 5839 5839 5839 5840 5840 5840 5840 5840 5841 5841 5841 5841 5842 5842 5842 5843 5843 5843 5843 5843 5843 5843 5843 5843 5842 5842 5842 5842 5842 5842 5842 5841 5841 5841 5841 5841 5841 5841 5841 5841 5841 5840 5840 5840 5840 5839 5839 5839 5838 5838 5838 5838 5837 5837 5837 5836 5836 5836 5836 5835 5835 5834 5834 5833 5833 5832 5832 5831 5831
5816 5816 5816 5817 5818 5819 5820 5821 5821 5821 5822 5823 5825 5826 5827 5828 5829 5830 5831 5831 5832 5833 5833 5834 5834 5834 5835 5836 5836 5836 5836 5836 5837 5837 5837 5837 5837 5838 5838 5838 5838 5838 5839 5839 5839 5840 5840 5840 5841 5841 5841 5841 5841 5841 5841 5841 5841 5841 5840 5840 5840 5840 5840 5840 5840 5839 5839 5839 5839 5839 5839 5839 5839 5838 5838 5838 5838 5838 5837 5837 5837 5836 5836 5836 5836 5836 5835 5835 5835 5834 5834 5834 5833 5833 5832 5832 5831 5831 5831 5830 5830 5829 5829
5815 5815 5814 5814 5815 5816 5817 5817 5817 5818 5819 5820 5821 5823 5824 5825 5826 5827 5828 5829 5830 5830 5831 5831 5832 5832 5833 5833 5834 5834 5834 5834 5835 5835 5835 5836 5836 5836 5836 5836 5836 5837 5837 5837 5838 5838 5838 5838 5839 5839 5839 5839 5839 5839 5839 5839 5839 5839 5839 5838 5838 5837 5837 5837 5837 5837 5837 5837 5837 5837 5836 5836 5836 5836 5836 5836 5836 5835 5835 5835 5834 5834 5834 5833 5833 5833 5833 5832 5832 5832 5831 5831 5831 5831 5830 5830 5829 5829 5828 5828 5827 5827 5827
5814 5814 5814 5812 5811 5812 5814 5814 5814 5814 5815 5816 5818 5819 5821 5822 5823 5824 5825 5826 5827 5828 5828 5829 5829 5830 5830 5831 5831 5832 5832 5832 5833 5833 5833 5834 5834 5834 5834 5835 5835 5835 5835 5836 5836 5836 5836 5836 5836 5837 5837 5837 5837 5837 5837 5837 5837 5837 5837 5836 5836 5836 5835 5835 5835 5835 5835 5835 5835 5834 5834 5834 5834 5834 5833 5833 5833 5833 5832 5832 5832 5831 5831 5831 5831 5830 5830 5830 5830 5829 5829 5829 5828 5828 5828 5827 5827 5826 5826 5825 5825 5825 5824
5814 5814 5813 5811 5809 5808 5809 5810 5810 5811 5812 5813 5815 5816 5817 5819 5820 5821 5822 5823 5824 5825 5826 5826 5827 5827 5828 5828 5829 5830 5830 5830 5831 5831 5831 5832 5832 5832 5833 5833 5833 5833 5833 5833 5834 5834 5834 5834 5834 5835 5835 5835 5835 5835 5835 5835 5835 5835 5835 5835 5834 5834 5833 5833 5833 5833 5832 5832 5832 5832 5832 5831 5831 5831 5831 5831 5831 5830 5830 5830 5829 5829 5828 5828 5828 5827 5827 5827 5827 5826 5826 5826 5826 5825 5825 5825 5824 5824 5823 5823 5822 5822 5821
5813 5813 5812 5811 5808 5806 5805 5805 5805 5807 5808 5810 5811 5813 5814 5816 5817 5819 5820 5821 5821 5822 5823 5824 5824 5825 5825 5826 5826 5827 5827 5828 5828 5829 5829 5830 5830 5831 5831 5831 5831 5831 5831 5831 5831 5831 5832 5832 5832 5832 5832 5832 5832 5832 5832 5832 5832 5832 5833 5833 5832 5832 5831 5831 5831 5831 5830 5830 5830 5830 5829 5829 5829 5828 5828 5828 5828 5828 5827 5827 5826 5826 5826 5825 5825 5825 5824 5824 5824 5824 5823 5823 5822 5822 5822 5822 5822 5821 5821 5820 5819 5819 5820
5808 5809 5809 5808 5806 5804 5803 5801 5802 5803 5805 5807 5808 5810 5811 5813 5815 5816 5817 5818 5819 5820 5820 5821 5821 5822 5823 5823 5824 5825 5825 5825 5826 5826 5827 5828 5828 5828 5829 5829 5829 5829 5829 5829 5829 5829 5830 5830 5830 5830 5830 5830 5830 5830 5830 5830 5830 5830 5830 5830 5830 5830 5830 5829 5829 5828 5828 5828 5827 5827 5827 5827 5826 5826 5826 5826 5825 5825 5825 5824 5824 5823 5823 5823 5822 5822 5822 5821 5821 5821 5820 5820 5820 5819 5819 5819 5819 5819 5818 5817 5817 5817 5817
5803 5804 5805 5806 5805 5803 5801 5799 5799 5801 5803 5804 5806 5807 5809 5811 5812 5814 5815 5816 5816 5817 5818 5819 5819 5820 5821 5821 5822 5822 5822 5823 5823 5824 5825 5825 5826 5826 5826 5826 5827 5827 5827 5827 5827 5827 5827 5827 5827 5827 5827 5827 5827 5827 5828 5828 5827 5827 5827 5827 5827 5828 5828 5827 5826 5826 5825 5825 5825 5825 5825 5824 5824 5823 5823 5823 5823 5822 5822 5822 5821 5821 5820 5820 5820 5819 5819 5818 5818 5817 5817 5817 5816 5816 5816 5816 5816 5816 5815 5815 5814 5814 5813
5801 5802 5803 5804 5803 5801 5798 5797 5797 5799 5800 5801 5803 5805 5806 5808 5810 5811 5812 5813 5814 5815 5816 5816 5817 5818 5818 5819 5820 5820 5820 5821 5821 5821 5822 5823 5823 5824 5824 5824 5824 5825 5825 5825 5825 5825 5825 5825 5825 5825 5825 5825 5825 5825 5825 5825 5825 5825 5825 5825 5825 5825 5825 5825 5825 5824 5823 5822 5822 5822 5822 5821 5821 5821 5821 5820 5820 5820 5819 5819 5819 5818 5818 5817 5817 5816 5816 5816 5815 5815 5814 5814 5813 5813 5813 5813 5813 5813 5812 5812 5811 5811 5810
5799 5800 5800 5801 5801 5798 5795 5795 5796 5796 5797 5799 5800 5802 5804 5806 5807 5808 5809 5810 5811 5812 5813 5814 5815 5816 5816 5817 5817 5818 5818 5818 5819 5819 5820 5820 5821 5821 5821 5822 5822 5822 5822 5822 5822 5822 5822 5822 5822 5822 5822 5822 5822 5822 5822 5822 5822 5822 5822 5822 5822 5822 5822 5822 5822 5822 5821 5820 5820 5820 5819 5819 5818 5818 5818 5817 5817 5817 5816 5816 5816 5815 5815 5814 5814 5813 5813 5813 5812 5812 5811 5811 5810 5810 5810 5810 5810 5810 5810 5809 5808 5808 5807
5795 5795 5796 5797 5796 5795 5794 5794 5794 5794 5795 5796 5797 5799 5801 5803 5804 5805 5806 5808 5809 5810 5811 5811 5812 5813 5814 5815 5816 5816 5816 5816 5817 5817 5817 5818 5818 5819 5819 5820 5820 5820 5820 5820 5820 5820 5820 5820 5820 5820 5820 5820 5820 5820 5819 5820 5820 5819 5819 5819 5819 5819 5819 5819 5819 5819 5819 5818 5817 5817 5817 5816 5816 5816 5815 5815 5814 5814 5814 5813 5813 5812 5812 5811 5811 5811 5810 5810 5810 5809 5808 5808 5807 5807 5806 5806 5806 5807 5806 5806 5806 5805 5805
5792 5791 5791 5792 5792 5792 5792 5793 5793 5792 5792 5793 5795 5797 5799 5800 5801 5802 5804 5805 5806 5807 5808 5809 5810 5811 5812 5813 5813 5814 5814 5814 5815 5815 5815 5815 5816 5816 5817 5817 5817 5818 5818 5818 5818 5817 5817 5817 5817 5817 5817 5817 5817 5817 5817 5817 5817 5816 5816 5816 5816 5816 5816 5816 5816 5816 5816 5815 5815 5814 5814 5814 5813 5813 5812 5812 5812 5811 5811 5811 5810 5810 5809 5809 5808 5808 5807 5807 5806 5806 5806 5805 5804 5804 5803 5803 5803 5803 5803 5803 5803 5803 5802
5790 5789 5789 5789 5790 5791 5791 5791 5791 5790 5790 5791 5792 5795 5797 5797 5798 5800 5801 5803 5804 5805 5806 5807 5807 5808 5809 5810 5811 5811 5812 5812 5812 5812 5812 5813 5813 5814 5814 5815 5815 5815 5816 5815 5815 5815 5815 5815 5814 5815 5815 5815 5814 5814 5814 5814 5814 5814 5814 5813 5813 5813 5813 5813 5812 5813 5813 5812 5812 5811 5811 5811 5811 5810 5810 5809 5809 5809 5808 5808 5807 5807 5806 5806 5806 5805 5805 5804 5804 5803 5803 5802 5802 5801 5801 5800 5800 5800 5800 5800 5800 5800 5799
5787 5786 5786 5787 5788 5789 5789 5788 5787 5787 5788 5789 5791 5793 5794 5795 5796 5797 5799 5801 5802 5803 5804 5805 5805 5806 5807 5808 5809 5809 5810 5810 5810 5810 5810 5810 5811 5811 5811 5812 5812 5813 5813 5813 5812 5812 5812 5812 5812 5812 5812 5812 5812 5812 5811 5811 5811 5811 5811 5810 5810 5810 5810 5810 5809 5809 5809 5809 5809 5808 5808 5808 5808 5807 5807 5806 5806 5806 5805 5805 5805 5804 5804 5803 5803 5802 5802 5801 5801 5800 5800 5799 5799 5798 5798 5797 5797 5797 5797 5797 5796 5796 5796
5785 5785 5784 5784 5785 5785 5785 5784 5785 5785 5786 5787 5789 5791 5792 5793 5794 5795 5797 5798 5800 5801 5802 5802 5803 5804 5805 5806 5806 5807 5807 5807 5807 5807 5807 5807 5808 5808 5809 5809 5810 5810 5810 5810 5810 5810 5810 5809 5809 5809 5809 5809 5809 5809 5809 5809 5809 5808 5808 5807 5807 5807 5807 5806 5806 5806 5806 5806 5806 5806 5805 5805 5805 5804 5804 5803 5803 5803 5802 5802 5801 5801 5801 5800 5800 5799 5799 5798 5798 5797 5797 5796 5796 5795 5795 5794 5794 5795 5795 5794 5794 5794 5793
5783 5783 5783 5783 5783 5782 5783 5783 5783 5784 5785 5786 5787 5788 5790 5791 5793 5794 5795 5796 5797 5799 5800 5800 5801 5802 5802 5803 5804 5804 5805 5805 5805 5805 5805 5805 5806 5806 5806 5806 5807 5807 5807 5807 5807 5807 5807 5807 5807 5807 5806 5806 5806 5806 5806 5806 5806 5806 5805 5804 5804 5804 5804 5803 5803 5803 5803 5803 5803 5802 5802 5802 5801 5801 5801 5800 5800 5800 5799 5799 5798 5798 5798 5797 5797 5796 5796 5796 5795 5794 5794 5793 5793 5792 5792 5791 5791 5791 5791 5791 5791 5791 5791
5781 5781 5781 5781 5781 5781 5781 5782 5782 5783 5783 5784 5785 5786 5788 5789 5791 5792 5793 5794 5795 5796 5797 5798 5799 5800 5800 5801 5801 5801 5802 5802 5802 5802 5802 5803 5803 5803 5803 5804 5804 5804 5804 5804 5804 5804 5804 5804 5804 5804 5804 5804 5804 5804 5803 5803 5803 5802 5802 5801 5801 5801 5801 5800 5800 5800 5800 5799 5799 5799 5799 5799 5798 5798 5798 5797 5796 5796 5796 5796 5796 5795 5795 5794 5794 5793 5793 5792 5792 5791 5791 5791 5790 5790 5789 5789 5788 5788 5788 5788 5788 5788 5788
5781 5780 5779 5779 5778 5779 5779 5780 5780 5781 5781 5783 5784 5785 5786 5788 5789 5790 5791 5792 5793 5794 5795 5796 5796 5797 5798 5798 5799 5799 5799 5799 5799 5800 5800 5800 5801 5801 5801 5801 5801 5801 5801 5801 5801 5801 5801 5801 5801 5801 5801 5801 5801 5801 5800 5800 5800 5800 5799 5799 5798 5798 5797 5797 5797 5797 5796 5796 5796 5796 5795 5795 5795 5795 5795 5794 5794 5793 5793 5792 5792 5792 5791 5791 5791 5790 5790 5790 5789 5789 5788 5788 5787 5786 5786 5786 5785 5785 5785 5785 5785 5785 5785
5780 5779 5778 5777 5776 5776 5777 5777 5778 5779 5780 5781 5783 5784 5786 5786 5787 5787 5788 5789 5790 5791 5792 5794 5795 5795 5796 5796 5796 5796 5796 5796 5796 5797 5797 5797 5797 5798 5798 5798 5798 5798 5798 5798 5798 5798 5798 5798 5798 5798 5798 5798 5798 5797 5797 5797 5797 5796 5796 5796 5796 5795 5795 5794 5794 5793 5793 5793 5792 5792 5792 5792 5791 5791 5791 5791 5791 5790 5790 5789 5789 5789 5788 5788 5788 5787 5787 5786 5786 5786 5785 5785 5784 5784 5783 5783 5782 5782 5782 5782 5782 5782 5782
5778 5778 5776 5775 5775 5775 5775 5775 5776 5777 5778 5780 5781 5783 5785 5784 5784 5784 5785 5787 5788 5790 5791 5791 5792 5792 5793 5793 5794 5794 5794 5793 5794 5794 5794 5794 5794 5795 5795 5795 5795 5795 5795 5795 5795 5795 5795 5795 5796 5796 5796 5796 5795 5794 5794 5794 5794 5794 5793 5793 5793 5792 5791 5791 5791 5791 5790 5789 5789 5788 5788 5788 5788 5788 5788 5788 5788 5787 5787 5786 5786 5786 5785 5785 5784 5784 5784 5783 5783 5782 5782 5781 5781 5781 5780 5780 5780 5779 5779 5779 5779 5779 5778
5776 5776 5775 5775 5774 5774 5774 5774 5775 5776 5776 5778 5779 5781 5782 5782 5781 5781 5783 5785 5786 5787 5788 5789 5789 5790 5790 5791 5791 5791 5791 5791 5791 5791 5791 5791 5791 5791 5791 5791 5791 5792 5792 5792 5792 5792 5792 5792 5792 5793 5793 5792 5792 5791 5791 5791 5791 5791 5791 5791 5790 5790 5789 5788 5788 5787 5787 5786 5786 5785 5785 5785 5785 5785 5785 5784 5784 5784 5784 5783 5783 5782 5782 5781 5781 5781 5781 5780 5780 5779 5779 5778 5778 5777 5777 5777 5776 5776 5776 5776 5776 5775 5775
5775 5775 5775 5774 5774 5774 5773 5774 5774 5774 5775 5776 5777 5778 5778 5779 5780 5781 5781 5782 5783 5784 5785 5786 5786 5787 5787 5788 5788 5788 5788 5788 5788 5788 5788 5787 5788 5788 5788 5788 5789 5789 5789 5790 5789 5789 5789 5789 5789 5790 5790 5789 5789 5788 5788 5788 5788 5788 5788 5788 5787 5787 5786 5786 5785 5785 5784 5783 5783 5782 5782 5782 5782 5781 5781 5781 5781 5781 5781 5780 5780 5780 5779 5778 5778 5777 5777 5777 5776 5776 5775 5775 5774 5774 5774 5773 5773 5773 5772 5772 5772 5772 5772
5773 5773 5773 5773 5773 5773 5773 5773 5773 5774 5774 5775 5776 5776 5776 5777 5778 5779 5780 5780 5781 5781 5782 5782 5783 5784 5785 5785 5786 5786 5785 5785 5785 5785 5786 5785 5785 5785 5785 5786 5786 5786 5786 5787 5786 5786 5787 5787 5787 5786 5786 5786 5786 5785 5785 5785 5785 5785 5785 5785 5784 5784 5784 5783 5783 5782 5782 5781 5780 5780 5779 5779 5779 5779 5778 5778 5778 5778 5777 5777 5777 5776 5776 5775 5774 5774 5773 5773 5773 5773 5772 5771 5771 5771 5770 5770 5769 5769 5769 5769 5769 5768 5768
5771 5771 5771 5771 5771 5771 5771 5772 5772 5773 5773 5774 5774 5775 5775 5775 5775 5776 5777 5777 5778 5778 5779 5780 5780 5781 5781 5782 5783 5783 5783 5782 5782 5782 5782 5782 5782 5782 5782 5782 5782 5782 5783 5783 5783 5783 5784 5785 5784 5783 5783 5783 5783 5782 5782 5782 5782 5781 5781 5781 5781 5781 5781 5780 5780 5779 5779 5778 5777 5777 5776 5776 5776 5776 5776 5775 5775 5774 5774 5774 5773 5773 5773 5772 5771 5771 5770 5770 5769 5769 5768 5768 5767 5767 5766 5766 5766 5765 5765 5765 5765 5765 5764
5768 5769 5769 5770 5770 5770 5770 5770 5771 5771 5772 5772 5772 5773 5773 5773 5773 5773 5774 5774 5775 5776 5776 5777 5778 5778 5779 5779 5780 5780 5780 5780 5780 5780 5780 5779 5779 5779 5779 5779 5779 5780 5779 5780 5780 5780 5780 5781 5781 5781 5780 5781 5781 5780 5780 5780 5779 5778 5778 5778 5778 5778 5778 5777 5777 5776 5776 5775 5775 5774 5773 5773 5773 5773 5772 5772 5772 5771 5771 5770 5770 5770 5769 5769 5768 5767 5766 5766 5766 5765 5764 5764 5763 5763 5763 5762 5762 5762 5761 5761 5761 5761 5761
5766 5767 5767 5768 5768 5768 5768 5769 5769 5770 5770 5770 5771 5771 5771 5771 5771 5771 5771 5772 5773 5773 5774 5775 5775 5776 5776 5776 5777 5777 5777 5777 5777 5777 5777 5776 5776 5776 5776 5776 5776 5776 5776 5776 5776 5777 5777 5777 5777 5777 5777 5779 5779 5778 5777 5777 5777 5776 5775 5775 5775 5775 5775 5774 5774 5773 5773 5772 5772 5771 5771 5770 5770 5769 5769 5769 5769 5768 5767 5767 5766 5766 5766 5765 5765 5764 5763 5762 5762 5761 5761 5760 5759 5759 5759 5758 5758 5758 5758 5757 5757 5757 5756
5764 5764 5765 5766 5766 5766 5767 5767 5767 5768 5768 5768 5768 5769 5769 5769 5769 5769 5770 5770 5771 5771 5772 5772 5773 5773 5774 5774 5774 5775 5775 5775 5774 5774 5774 5773 5773 5773 5773 5773 5773 5773 5773 5773 5774 5774 5774 5774 5774 5774 5774 5776 5776 5775 5774 5774 5774 5773 5773 5772 5772 5772 5771 5771 5771 5771 5770 5769 5769 5768 5767 5767 5766 5766 5766 5766 5765 5765 5764 5763 5763 5762 5762 5761 5761 5761 5760 5759 5758 5758 5757 5756 5755 5755 5754 5754 5754 5754 5754 5754 5753 5753 5752
5761 5762 5763 5763 5764 5765 5765 5766 5766 5766 5766 5766 5767 5767 5767 5767 5767 5768 5768 5769 5769 5769 5770 5770 5771 5771 5771 5771 5771 5772 5772 5772 5772 5771 5771 5771 5771 5771 5771 5770 5770 5770 5771 5770 5771 5771 5770 5771 5771 5771 5771 5771 5772 5772 5772 5771 5771 5771 5770 5770 5769 5769 5768 5768 5768 5767 5767 5766 5766 5765 5764 5763 5763 5762 5762 5761 5761 5761 5760 5760 5759 5758 5758 5758 5758 5757 5757 5756 5755 5754 5753 5752 5751 5750 5750 5750 5750 5750 5750 5749 5749 5748 5748
5759 5759 5760 5761 5761 5762 5763 5763 5764 5764 5764 5765 5765 5765 5765 5765 5765 5766 5766 5767 5767 5767 5768 5768 5768 5768 5768 5768 5769 5769 5769 5769 5769 5769 5768 5768 5768 5768 5768 5768 5767 5767 5768 5768 5768 5767 5767 5767 5767 5767 5768 5767 5767 5768 5770 5769 5768 5767 5767 5767 5766 5766 5765 5765 5764 5764 5763 5763 5762 5762 5761 5760 5760 5759 5758 5758 5757 5757 5756 5756 5755 5755 5754 5754 5754 5754 5753 5753 5752 5751 5750 5748 5747 5746 5746 5746 5746 5746 5745 5745 5745 5744 5744
5756 5756 5757 5757 5758 5759 5760 5760 5761 5761 5762 5762 5763 5763 5763 5763 5763 5763 5764 5764 5764 5765 5765 5765 5765 5765 5765 5765 5765 5766 5766 5766 5766 5766 5765 5765 5765 5765 5766 5765 5765 5765 5765 5765 5765 5765 5764 5764 5763 5763 5764 5764 5763 5764 5765 5765 5765 5765 5764 5764 5763 5763 5762 5761 5761 5760 5760 5759 5759 5758 5758 5757 5756 5756 5755 5754 5753 5753 5752 5752 5751 5750 5750 5749 5749 5749 5749 5749 5748 5747 5746 5744 5743 5742 5742 5741 5741 5741 5741 5740 5740 5740 5739
5752 5753 5754 5754 5755 5755 5756 5756 5757 5757 5758 5759 5759 5760 5760 5760 5760 5761 5761 5761 5761 5762 5762 5762 5762 5762 5762 5761 5762 5762 5762 5762 5762 5762 5762 5762 5761 5761 5762 5762 5762 5761 5762 5761 5761 5761 5761 5761 5760 5760 5760 5759 5759 5759 5759 5760 5761 5761 5761 5761 5761 5760 5759 5757 5757 5756 5756 5755 5754 5754 5754 5753 5753 5752 5751 5751 5750 5749 5748 5747 5746 5746 5745 5745 5744 5744 5744 5744 5744 5743 5742 5740 5739 5738 5737 5737 5737 5736 5736 5736 5735 5735 5734